Regional Weather Roundup
Issued by NWS

Home | Current Version | Previous Version | Graphics & Text | Print | Product List | Glossary On
Versions: 1 2 3 4 5 6 7 8 9 10 11 12 13 14 15 16 17 18 19 20 21 22 23 24 25 26 27 28 29 30 31 32 33 34 35 36 37 38 39 40 41 42 43 44 45 46 47 48 49 50
000
ASUS45 KCYS 040710
RWRWY

WYOMING REGIONAL WEATHER ROUNDUP
NATIONAL WEATHER SERVICE CHEYENNE WY
100 AM MDT WED MAY 04 2016

NOTE:  "FAIR" INDICATES FEW OR NO CLOUDS BELOW 12,000 FEET
WITH NO SIGNIFICANT WEATHER AND/OR OBSTRUCTIONS TO VISIBILITY.

WYZ001-040800-
YELLOWSTONE NATIONAL PARK

CITY           SKY/WX    TMP DP  RH WIND       PRES   REMARKS
LK YELLOWSTONE   N/A     30  24  78 CALM      30.35R
W YELLOWSTONE  NOT AVBL

$$
WYZ002>013-054>058-071-098>099-040800-
NORTHERN WYOMING

CITY           SKY/WX    TMP DP  RH WIND       PRES   REMARKS
JACKSON        FAIR      37  28  70 N3        30.29R
CODY           FAIR      54  32  43 SW8       30.17S
GREYBULL       FAIR      56  32  40 SE5       30.14R
WORLAND        FAIR      47  37  68 SE3       30.15R
SHERIDAN       FAIR      44  37  76 W3        30.13S
BUFFALO        FAIR      52  36  54 CALM      30.19S
GILLETTE       FAIR      43  38  82 S8        30.17R
HULETT         FAIR      46  36  66 S7        30.17S
NEWCASTLE      FAIR      46  34  61 NE5       30.19S

$$
WYZ014>020-022>026-101>103-040800-
CENTRAL WYOMING

CITY           SKY/WX    TMP DP  RH WIND       PRES   REMARKS
BIG PINEY      FAIR      39  25  57 E3        30.30R
PINEDALE       FAIR      34  28  80 CALM      30.32R
DUBOIS         FAIR      39  27  60 NW10      30.31R WCI  32
LANDER         FAIR      47  34  60 N5        30.21R
RIVERTON       FAIR      50  36  58 W9        30.23R
CASPER         FAIR      42  34  73 W5        30.23R
DOUGLAS        FAIR      42  36  79 CALM      30.23R

$$
WYZ021-027>030-104>119-040800-
SOUTHERN WYOMING

CITY           SKY/WX    TMP DP  RH WIND       PRES   REMARKS
EVANSTON       FAIR      46  24  42 SE5       30.29S
KEMMERER         N/A     39  28  65 N10       30.31R WCI  32
FORT BRIDGER   SUNNY     46  25  42 SW6       30.32R
ROCK SPRINGS   FAIR      48  26  42 S9        30.28S
DIXON          FAIR      44  29  57 NE7       30.32S
RAWLINS        FAIR      37  30  75 N7        30.30R WCI  32
SARATOGA       FAIR      36  30  80 CALM      30.32R
LARAMIE        FAIR      32  29  88 SW6       30.32S WCI  26
CHEYENNE       FAIR      42  33  70 W9        30.27S
TORRINGTON     FAIR      47  39  74 NW5       30.18S
PINE BLUFFS    FAIR      41  36  81 E5        30.24R

$$



USA.gov is the U.S. government's official web portal to all federal, state and local government web resources and services.